ICEYE-X59

导读

ICEYE-X59是芬兰冰眼公司(ICEYE)于2025年11月28日发射的合成孔径雷达(SAR)遥感卫星,属于冰眼卫星系列。该卫星体积小、成本低,搭载先进X波段SAR系统,支持五种成像模式,最高可达25cm分辨率,可全天时、全天候对地观测。服务于港口监控、溢油检测、自然灾害应对等多个领域,将进一步扩充冰眼商业遥感卫星星座,提升全球高频次持续监测能力。

基本信息
目录编号:
66752
目录名称:
ICEYE-X59
国际标识:
2025-276CQ
轨道中心:
EARTH
卫星名称:
ICEYE-X59
卫星全名:
ICEYE-X59
卫星状态:
在轨 (已飞行241 天)
发射日期:
2025-11-28 UTC
国别 :
(GR)
星等 :
--
轨道信息
数据来源 国际轨道数据
星历时间: 2026-07-27T11:31:41+0800
18小时前
查看轨道信息
半长轴: 6942.435km
偏心率: 0.000166
轨道倾角: 97.442°
近地点辐角 121.555°
升交点赤经 277.739°
平近点角 238.584°
近地点: 563.145km
远地点: 565.451km
周期: 95.946分钟
每日圈数: 15.008424
详细信息
使用方式:
暂无
2D轨道图
3D轨道图
轨道高度分析图
轨道倾角分析图
轨道综合分析图
查看轨道综合分析图